[[{"header":{"parameterUnit":"m.s-1","parameterCategory":1,"la1":30.2991,"la2":30.254,"lo1":-89.0895,"lo2":-89.0444,"dy":0.0017,"dx":0.0017,"nx":28,"ny":28,"refTime":"2023-05-01T21:00:00:Z","depth":0,"parameterNumber":2,"parameterNumberName":"U-component_of_WINDS"},"data":[0,0,0,0,0,0,0,0,0,0,0,0,0,0,0,0,0,0,0,0,0,0,0,0,0,0,0,0,0,0,0,0,0,0,0,0,0,0,0,0,0,0,0,0,0,0,0,0,0,0,0,0,0,0,0,0,0,0,1.6294,1.6295,0,1.6385,1.6386,1.6388,1.6356,1.6354,1.6352,1.635,1.6448,1.6452,1.6457,0,0,0,0,0,0,0,0,0,0,0,0,0,1.6096,1.61,1.6294,1.6295,1.6296,1.6385,1.6387,1.6388,1.6356,1.6354,1.6351,1.6349,1.6446,1.6452,1.6457,0,0,0,0,0,0,0,0,0,0,0,0,0,1.6184,1.6101,1.6293,1.6291,1.6291,1.6385,1.6387,1.6388,1.6357,1.6353,1.635,1.6348,1.6445,1.6451,1.6458,1.6561,0,0,1.6478,1.6481,0,0,0,0,0,0,0,0,1.6179,1.6192,1.629,1.6291,1.6292,1.6356,1.6353,1.6446,1.6357,1.6332,1.635,1.6346,1.642,1.6429,1.6453,1.6565,1.657,1.6479,1.6483,1.6486,1.6488,0,0,0,0,0,0,0,1.6173,1.6188,1.633,1.6292,1.6293,1.6287,1.6296,1.637,1.6392,1.6334,1.6332,1.6343,1.642,1.6446,1.6455,1.6571,1.6479,1.6485,1.6489,1.6492,1.6776,1.6779,0,0,0,0,0,0,1.6166,1.6183,1.6327,1.6333,1.6227,1.6293,1.6303,1.6339,1.6391,1.6396,1.6345,1.6341,1.6436,1.6447,1.6458,1.6584,1.6486,1.6492,1.6496,1.6772,1.6776,1.678,0,0,0,0,0,0,1.6162,1.6179,1.6323,1.6257,1.6275,1.6299,1.634,1.6342,1.6368,1.64,1.6404,1.6368,1.6434,1.6448,1.6536,1.6587,1.6495,1.6502,1.6768,1.6774,1.6778,1.6835,0,0,0,0,0,0,1.6156,1.6178,1.6216,1.6258,1.6279,1.6398,1.6343,1.6346,1.6379,1.6375,1.6422,1.6427,1.6433,1.6526,1.6542,1.6594,1.6507,1.6764,1.6771,1.6777,1.6829,1.6842,1.6853,0,0,0,0,0,1.6149,1.6229,1.6218,1.6236,1.6327,1.6401,1.6413,1.6417,1.6383,1.6423,1.6444,1.6425,1.6578,1.6535,1.6553,1.6608,1.6761,1.6769,1.6776,1.6824,1.6839,1.6853,0,0,0,0,0,0,1.6193,1.6234,1.6223,1.6318,1.6356,1.6396,1.6445,1.6433,1.6483,1.6476,1.648,1.6491,1.6582,1.6603,1.6555,1.6712,1.6665,1.6677,1.6694,1.671,1.6721,1.6715,1.6512,0,0,0,0,0,1.6213,1.6269,1.6302,1.6383,1.6403,1.6421,1.6454,1.6453,1.6494,1.651,1.6537,1.6578,1.6636,1.6674,1.6728,1.6832,1.6843,1.6879,1.6891,1.69,1.6911,1.697,1.6987,1.6806,1.6806,1.6806,0,0,1.6257,1.6286,1.6321,1.6393,1.6422,1.6482,1.6435,1.6499,1.6544,1.652,1.6605,1.6626,1.6673,1.6769,1.6813,1.679,1.6963,1.691,1.6918,1.6923,1.698,1.6997,1.7012,1.6811,1.681,1.6809,0,0,1.6366,1.6393,1.6464,1.6495,1.654,1.6552,1.6569,1.6611,1.6624,1.6708,1.6692,1.6746,1.6844,1.6879,1.6909,1.7033,1.7019,1.7051,1.7114,1.7171,1.7185,1.7198,1.7245,1.7261,1.7061,1.7062,1.7062,0,1.6414,1.6501,1.6502,1.6569,1.6602,1.6582,1.6656,1.6686,1.6747,1.6771,1.6745,1.6869,1.6898,1.7004,1.7034,1.7059,1.7081,1.7046,1.7183,1.7196,1.7208,1.7252,1.7269,1.7065,1.7065,1.7064,1.7064,0,1.656,1.6621,1.6673,1.6732,1.6771,1.6841,1.6854,1.6894,1.689,1.6906,1.6993,1.7028,1.709,1.7115,1.7113,1.7221,1.7206,1.7181,1.7134,1.7229,1.7271,1.7287,1.7071,1.7069,1.7068,1.7067,0,0,1.6699,1.6758,1.6778,1.6805,1.6854,1.6902,1.6972,1.7032,1.7067,1.711,1.717,1.7255,1.7232,1.7267,1.7268,1.7319,1.7418,1.7288,1.7289,1.7313,1.7542,1.7562,1.7581,1.7408,1.7411,1.7414,1.7539,0,1.6814,1.6935,1.6938,1.705,1.7108,1.709,1.7151,1.7189,1.7206,1.7259,1.7277,1.7338,1.7303,1.7324,1.7373,1.7395,1.7464,1.7386,1.7466,1.7469,1.7457,1.7602,1.7623,1.7739,1.7555,1.7558,1.756,0,1.6964,1.7011,1.7128,1.7171,1.7195,1.725,1.7306,1.7356,1.74,1.7408,1.7448,1.7442,1.7516,1.7465,1.7568,1.7515,1.7548,1.7564,1.7569,1.7578,1.7521,1.7617,1.7776,1.7794,1.7585,1.7583,1.7581,0,1.7056,1.715,1.7232,1.7256,1.7307,1.7346,1.737,1.741,1.7446,1.7496,1.752,1.7578,1.761,1.7656,1.7668,1.7629,1.7771,1.7721,1.7783,1.7783,1.7814,1.7813,1.7983,1.7833,1.7833,1.7832,1.7832,0,1.7185,1.7258,1.7274,1.7325,1.7407,1.7411,1.7493,1.7514,1.755,1.7607,1.7595,1.7649,1.766,1.7716,1.7725,1.7811,1.7825,1.7836,1.7838,1.7838,1.7837,1.7861,1.7854,1.7837,1.7836,1.7835,1.7834,0,1.7302,1.7316,1.7405,1.7446,1.7459,1.7517,1.7554,1.7604,1.7619,1.769,1.7708,1.7732,1.7798,1.7814,1.7892,1.7899,1.8001,1.7994,1.7986,1.7986,1.8047,1.8042,1.824,1.8267,1.8098,1.81,1.8101,0,1.7384,1.744,1.7487,1.7523,1.7548,1.7607,1.7644,1.7651,1.7691,1.7745,1.779,1.7854,1.7906,1.8013,1.8039,1.81,1.8096,1.8161,1.8105,1.8104,1.8099,1.8097,1.8103,1.8172,1.8174,1.8175,1.8177,0,1.7529,1.7533,1.7586,1.7643,1.7687,1.7732,1.7775,1.7806,1.7819,1.7864,1.7931,1.7972,1.8052,1.8117,1.8179,1.8205,1.8195,1.8194,1.8212,1.8213,1.8207,1.8213,1.8017,1.819,1.8188,1.8187,1.8187,1.8186,1.7633,1.7682,1.7723,1.7784,1.7816,1.7857,1.7907,1.7928,1.7983,1.8049,1.805,1.8123,1.8168,1.8249,1.8279,1.8338,1.8318,1.8344,1.835,1.8357,1.8363,1.8196,1.8349,1.8349,1.8348,1.8348,1.8348,0,1.7779,1.7804,1.786,1.792,1.7968,1.7952,1.7999,1.8041,1.8105,1.8147,1.8198,1.8276,1.834,1.8371,1.8435,1.8476,1.8473,1.8493,1.8491,1.8498,1.8376,1.8356,1.8495,1.8495,1.8495,1.8495,1.8494,1.8494,1.786,1.7944,1.7953,1.8054,1.8079,1.815,1.8179,1.8217,1.8251,1.8338,1.839,1.841,1.8448,1.8515,1.8573,1.8581,1.8606,1.8629,1.8634,1.8521,1.8506,1.8492,1.8472,1.8634,1.8634,1.8751,1.8752,1.8753]},{"header":{"parameterUnit":"m.s-1","parameterCategory":1,"la1":30.2991,"la2":30.254,"lo1":-89.0895,"lo2":-89.0444,"dy":0.0017,"dx":0.0017,"nx":28,"ny":28,"refTime":"2023-05-01T21:00:00:Z","depth":0,"parameterNumber":3,"parameterNumberName":"V-component_of_WINDS"},"data":[0,0,0,0,0,0,0,0,0,0,0,0,0,0,0,0,0,0,0,0,0,0,0,0,0,0,0,0,0,0,0,0,0,0,0,0,0,0,0,0,0,0,0,0,0,0,0,0,0,0,0,0,0,0,0,0,0,0,-0.6313,-0.6312,0,-0.6271,-0.6271,-0.6271,-0.63,-0.6301,-0.6302,-0.6303,-0.6258,-0.6255,-0.6253,0,0,0,0,0,0,0,0,0,0,0,0,0,-0.6413,-0.6411,-0.6313,-0.6312,-0.6312,-0.6272,-0.6271,-0.627,-0.6299,-0.6301,-0.6303,-0.6304,-0.6258,-0.6255,-0.6253,0,0,0,0,0,0,0,0,0,0,0,0,0,-0.637,-0.6411,-0.6313,-0.6322,-0.6322,-0.6272,-0.6271,-0.627,-0.6299,-0.6301,-0.6303,-0.6305,-0.6259,-0.6256,-0.6252,-0.619,0,0,-0.6241,-0.6239,0,0,0,0,0,0,0,0,-0.6373,-0.6367,-0.6321,-0.6321,-0.6321,-0.6293,-0.629,-0.6243,-0.6299,-0.6308,-0.6303,-0.6306,-0.6267,-0.6263,-0.6251,-0.6188,-0.6186,-0.6241,-0.6238,-0.6237,-0.6236,0,0,0,0,0,0,0,-0.6376,-0.6369,-0.6296,-0.632,-0.632,-0.6326,-0.6322,-0.6281,-0.6277,-0.6307,-0.6309,-0.6304,-0.6268,-0.6254,-0.625,-0.6185,-0.6241,-0.6237,-0.6235,-0.6234,-0.6068,-0.6066,0,0,0,0,0,0,-0.6378,-0.6371,-0.6298,-0.6295,-0.6352,-0.6323,-0.6318,-0.63,-0.6277,-0.6276,-0.6302,-0.6305,-0.626,-0.6254,-0.6249,-0.6173,-0.6237,-0.6233,-0.6231,-0.607,-0.6067,-0.6065,0,0,0,0,0,0,-0.6381,-0.6372,-0.6299,-0.6334,-0.6325,-0.6319,-0.6298,-0.6298,-0.6285,-0.6274,-0.6273,-0.6289,-0.6261,-0.6254,-0.6204,-0.6172,-0.6232,-0.6228,-0.6073,-0.6069,-0.6066,-0.6022,0,0,0,0,0,0,-0.6383,-0.6372,-0.6349,-0.6333,-0.6323,-0.6257,-0.6296,-0.6296,-0.6279,-0.6282,-0.6262,-0.626,-0.6262,-0.621,-0.6201,-0.6168,-0.6226,-0.6075,-0.6071,-0.6067,-0.6026,-0.6018,-0.601,0,0,0,0,0,-0.6387,-0.6338,-0.6348,-0.6339,-0.6294,-0.6255,-0.6249,-0.6253,-0.6276,-0.6252,-0.6245,-0.6261,-0.6178,-0.6204,-0.6194,-0.616,-0.6077,-0.6072,-0.6067,-0.603,-0.602,-0.6011,0,0,0,0,0,0,-0.635,-0.6336,-0.6347,-0.6292,-0.6274,-0.626,-0.623,-0.6242,-0.6217,-0.6221,-0.6227,-0.6222,-0.6169,-0.616,-0.619,-0.6098,-0.6131,-0.6124,-0.6106,-0.6096,-0.6088,-0.609,-0.6222,0,0,0,0,0,-0.6336,-0.6306,-0.6295,-0.6247,-0.6238,-0.6236,-0.6218,-0.6223,-0.6205,-0.6197,-0.6187,-0.6167,-0.6136,-0.6116,-0.6087,-0.6026,-0.6021,-0.5998,-0.599,-0.5983,-0.5976,-0.5941,-0.593,-0.6049,-0.6049,-0.6049,0,0,-0.6305,-0.6294,-0.6275,-0.624,-0.6227,-0.6194,-0.6229,-0.6193,-0.6169,-0.6191,-0.6144,-0.6135,-0.6114,-0.6058,-0.6033,-0.6049,-0.5943,-0.5977,-0.5972,-0.5968,-0.5935,-0.5924,-0.5914,-0.6045,-0.6046,-0.6046,0,0,-0.6233,-0.6222,-0.6181,-0.6167,-0.6147,-0.6146,-0.6136,-0.612,-0.6115,-0.6068,-0.6084,-0.6054,-0.6002,-0.5985,-0.597,-0.5892,-0.5904,-0.5882,-0.5839,-0.5805,-0.5796,-0.5788,-0.5757,-0.5747,-0.5876,-0.5876,-0.5876,0,-0.6197,-0.615,-0.6158,-0.612,-0.6104,-0.6125,-0.6081,-0.6068,-0.6039,-0.6026,-0.6045,-0.5979,-0.5966,-0.5906,-0.5887,-0.5874,-0.5862,-0.5883,-0.5797,-0.5789,-0.5781,-0.5752,-0.5741,-0.5873,-0.5873,-0.5874,-0.5874,0,-0.6105,-0.6072,-0.6041,-0.6014,-0.5994,-0.5954,-0.5954,-0.5933,-0.594,-0.5936,-0.5887,-0.5873,-0.5841,-0.5827,-0.5833,-0.5767,-0.5777,-0.5797,-0.5829,-0.5767,-0.574,-0.5729,-0.5869,-0.587,-0.5871,-0.5872,0,0,-0.6007,-0.5985,-0.5973,-0.596,-0.594,-0.5914,-0.5875,-0.5845,-0.5825,-0.5805,-0.5771,-0.5726,-0.5744,-0.5726,-0.5731,-0.5701,-0.5638,-0.5724,-0.5723,-0.5706,-0.5561,-0.5545,-0.5532,-0.5647,-0.5645,-0.5643,-0.5562,0,-0.5932,-0.5864,-0.587,-0.5805,-0.5773,-0.5793,-0.5758,-0.5741,-0.5737,-0.5709,-0.5704,-0.5671,-0.5697,-0.5687,-0.5659,-0.5651,-0.5608,-0.5658,-0.5613,-0.5611,-0.5615,-0.5519,-0.5502,-0.5426,-0.5552,-0.555,-0.5549,0,-0.5834,-0.5811,-0.5743,-0.5727,-0.5714,-0.5683,-0.5655,-0.5629,-0.561,-0.5608,-0.5589,-0.5599,-0.5558,-0.5593,-0.5535,-0.5569,-0.5551,-0.5545,-0.5542,-0.5535,-0.5574,-0.5508,-0.5402,-0.539,-0.5533,-0.5534,-0.5535,0,-0.5766,-0.5719,-0.5671,-0.566,-0.5641,-0.5618,-0.5609,-0.5592,-0.5573,-0.5549,-0.5536,-0.5507,-0.5491,-0.5468,-0.5468,-0.5495,-0.5409,-0.5445,-0.5405,-0.5405,-0.5384,-0.5385,-0.5271,-0.5377,-0.5377,-0.5377,-0.5377,0,-0.568,-0.5637,-0.5641,-0.5611,-0.5563,-0.557,-0.5522,-0.5516,-0.55,-0.5469,-0.5485,-0.5454,-0.5459,-0.5428,-0.5429,-0.538,-0.5373,-0.5369,-0.5369,-0.5366,-0.5366,-0.5353,-0.5357,-0.5374,-0.5375,-0.5375,-0.5376,0,-0.5595,-0.5596,-0.5545,-0.5532,-0.5527,-0.5492,-0.5479,-0.5451,-0.5449,-0.5408,-0.5399,-0.5395,-0.5359,-0.5359,-0.5319,-0.5319,-0.5258,-0.5266,-0.5264,-0.5265,-0.5224,-0.5227,-0.5096,-0.5078,-0.5198,-0.5196,-0.5196,0,-0.5539,-0.5506,-0.5489,-0.547,-0.5459,-0.5428,-0.5409,-0.5415,-0.5394,-0.537,-0.5343,-0.531,-0.5283,-0.5226,-0.5218,-0.5187,-0.5192,-0.5149,-0.5188,-0.5185,-0.5189,-0.5189,-0.5185,-0.514,-0.5139,-0.5138,-0.5137,0,-0.5438,-0.544,-0.5413,-0.5385,-0.5362,-0.534,-0.532,-0.5303,-0.5307,-0.5283,-0.5247,-0.5227,-0.5186,-0.5152,-0.5122,-0.5111,-0.5123,-0.5125,-0.5114,-0.5109,-0.5108,-0.5106,-0.5241,-0.5127,-0.5128,-0.5129,-0.513,-0.513,-0.5364,-0.5335,-0.5318,-0.5287,-0.5273,-0.5254,-0.5226,-0.522,-0.5191,-0.5159,-0.5164,-0.5124,-0.5105,-0.5066,-0.5053,-0.5021,-0.5036,-0.502,-0.5015,-0.501,-0.5005,-0.5116,-0.5016,-0.5016,-0.5016,-0.5016,-0.5017,0,-0.5261,-0.5252,-0.5223,-0.5195,-0.517,-0.5186,-0.5165,-0.5142,-0.5107,-0.5089,-0.5063,-0.5021,-0.4988,-0.4978,-0.4946,-0.4922,-0.4927,-0.4913,-0.4913,-0.491,-0.4995,-0.5006,-0.491,-0.491,-0.491,-0.491,-0.491,-0.491,-0.5205,-0.5157,-0.5157,-0.5101,-0.5092,-0.5053,-0.504,-0.5021,-0.5007,-0.496,-0.4933,-0.4928,-0.4912,-0.4879,-0.4849,-0.4847,-0.4833,-0.4816,-0.4816,-0.4894,-0.4905,-0.4915,-0.4926,-0.4813,-0.4813,-0.4734,-0.4733,-0.4732]}]]